Flag for U.S.A. Weather past 2 weeks in Birmingham, Alabama, U.S.A.

Now
77 °F

Clear.


Feels Like: 79 °F
Forecast: 75 / 96 °F
Wind: No wind

Location: Birmingham International Airport

Current Time: Aug 23, 2014 at 1:39:34 AM

Latest Report: Aug 23, 2014 at 12:53 AM


Visibility: 10 mi

Pressure: 30.01 "Hg

Humidity: 82%

Dew point: 71 °F

Location of BirminghamLocation

Historic Weather in Birmingham — Graph

°F

Birmingham temperature yesterday

Maximum temperature yesterday: 95 °F (at 3:53 PM)
Minimum temperature yesterday: 75 °F (at 4:53 AM)
Average temperature yesterday: 84 °F

Past Weeks' High & Low Weather Summary

 TemperatureHumidityPressure
High95 °F (Aug 8, 2:53 PM)97% (Aug 8, 10:53 PM)30.14 "Hg (Aug 8, 10:53 PM)
Low63 °F (Aug 14, 3:53 AM)32% (Aug 16, 3:53 PM)29.87 "Hg (Aug 12, 3:53 PM)
Average79 °F70%30.00 "Hg
* Reported Aug 7 11:53 PM — Aug 22 11:53 PM, Birmingham, Weather by CustomWeather, © 2014

Note: Actual official high and low records may vary slightly from our data, if they occured in-between our weather recording intervals... More about our weather records

Advertising

Birmingham weather history for previous 24 hours

 ConditionsComfort  
Time TempWeatherWind HumidityBarometerVisibility
11:53 PM
Aug 22
79 °FClear.No wind77%30.02 "Hg10 mi
10:53 PM80 °FClear.No wind74%30.02 "Hg10 mi
9:53 PM81 °FClear.No wind72%30.02 "Hg10 mi
8:53 PM82 °FClear.No wind67%30.01 "Hg10 mi
7:53 PM84 °FPassing clouds.3 mph63%30.00 "Hg10 mi
6:53 PM91 °FPassing clouds.5 mph49%30.00 "Hg10 mi
5:53 PM94 °FScattered clouds.7 mph43%30.00 "Hg10 mi
4:53 PM95 °FScattered clouds.5 mph43%30.00 "Hg10 mi
3:53 PM95 °FScattered clouds.7 mph44%30.02 "Hg10 mi
2:53 PM94 °FScattered clouds.6 mph44%30.03 "Hg10 mi
1:53 PM94 °FScattered clouds.9 mph46%30.06 "Hg10 mi
12:53 PM92 °FScattered clouds.7 mph52%30.09 "Hg10 mi
11:53 AM90 °FScattered clouds.10 mph56%30.11 "Hg10 mi
10:53 AM88 °FPassing clouds.5 mph61%30.13 "Hg10 mi
9:53 AM86 °FPassing clouds.9 mph63%30.14 "Hg10 mi
8:53 AM83 °FPassing clouds.8 mph70%30.14 "Hg10 mi
7:53 AM79 °FPassing clouds.5 mph79%30.14 "Hg10 mi
6:53 AM77 °FClear.5 mph82%30.11 "Hg10 mi
5:53 AM76 °FClear.No wind85%30.08 "Hg10 mi
4:53 AM75 °FClear.No wind90%30.06 "Hg10 mi
3:53 AM76 °FClear.No wind88%30.06 "Hg10 mi
2:53 AM76 °FClear.No wind88%30.07 "Hg10 mi
1:53 AM79 °FClear.No wind77%30.07 "Hg10 mi
Weather by CustomWeather, © 2014

See weather overviewHow to use our weather pages